Time,TemperatureF,DewpointF,PressureIn,WindDirection,WindDirectionDegrees,WindSpeedMPH,WindSpeedGustMPH,Humidity,HourlyPrecipIn,Conditions,Clouds,dailyrainin,SoftwareType,DateUTC
2013-03-09 00:01:00,55.3,-99.9,30.13,North,10,0.0,0.0,255,0.00,,,0.00,Wunderground v.1.13,2013-03-09 05:01:00,
2013-03-09 00:16:00,54.8,-99.9,30.12,North,10,0.0,0.0,255,0.00,,,0.00,Wunderground v.1.13,2013-03-09 05:16:00,
2013-03-09 00:25:00,54.5,-99.9,30.12,North,10,0.0,2.0,255,0.00,,,0.00,Wunderground v.1.13,2013-03-09 05:25:00,
2013-03-09 00:31:00,54.4,-99.9,30.12,North,10,0.0,0.0,255,0.00,,,0.00,Wunderground v.1.13,2013-03-09 05:31:00,
2013-03-09 00:46:00,54.1,-99.9,30.13,North,10,0.0,0.0,255,0.00,,,0.00,Wunderground v.1.13,2013-03-09 05:46:00,
2013-03-09 01:01:00,53.8,-99.9,30.12,North,10,0.0,0.0,255,0.00,,,0.00,Wunderground v.1.13,2013-03-09 06:01:00,
2013-03-09 01:31:00,53.5,-99.9,30.12,North,10,0.0,0.0,255,0.00,,,0.00,Wunderground v.1.13,2013-03-09 06:31:00,
2013-03-09 01:46:00,53.3,-99.9,30.12,North,10,0.0,0.0,255,0.00,,,0.00,Wunderground v.1.13,2013-03-09 06:46:00,
2013-03-09 02:00:00,53.2,-99.9,30.12,North,10,0.0,0.0,255,0.00,,,0.00,Wunderground v.1.13,2013-03-09 07:00:00,
2013-03-09 02:31:00,52.6,-99.9,30.11,North,10,0.0,0.0,255,0.00,,,0.00,Wunderground v.1.13,2013-03-09 07:31:00,
2013-03-09 02:36:00,52.5,-99.9,30.10,North,10,0.0,0.0,255,0.00,,,0.00,Wunderground v.1.13,2013-03-09 07:36:00,
2013-03-09 02:50:00,52.3,-99.9,30.09,North,10,0.0,0.0,255,0.00,,,0.00,Wunderground v.1.13,2013-03-09 07:50:00,
2013-03-09 02:56:00,52.2,-99.9,30.09,North,10,0.0,0.0,255,0.00,,,0.00,Wunderground v.1.13,2013-03-09 07:56:00,
2013-03-09 03:01:00,52.0,-99.9,30.09,North,10,0.0,0.0,255,0.00,,,0.00,Wunderground v.1.13,2013-03-09 08:01:00,
2013-03-09 03:26:00,51.9,-99.9,30.09,North,10,0.0,2.0,255,0.00,,,0.00,Wunderground v.1.13,2013-03-09 08:26:00,
2013-03-09 03:46:00,52.3,-99.9,30.09,North,10,0.0,1.0,255,0.00,,,0.00,Wunderground v.1.13,2013-03-09 08:46:00,
2013-03-09 04:01:00,52.8,-99.9,30.09,North,10,0.0,2.0,255,0.00,,,0.00,Wunderground v.1.13,2013-03-09 09:01:00,
2013-03-09 04:21:00,53.1,-99.9,30.09,North,10,0.0,0.0,255,0.00,,,0.00,Wunderground v.1.13,2013-03-09 09:21:00,
2013-03-09 04:40:00,53.1,-99.9,30.08,North,10,0.0,0.0,255,0.00,,,0.00,Wunderground v.1.13,2013-03-09 09:40:00,
2013-03-09 04:46:00,53.1,-99.9,30.08,North,10,0.0,0.0,255,0.00,,,0.00,Wunderground v.1.13,2013-03-09 09:46:00,
2013-03-09 04:51:00,52.9,-99.9,30.08,North,10,0.0,0.0,255,0.00,,,0.00,Wunderground v.1.13,2013-03-09 09:51:00,
2013-03-09 05:01:00,52.8,-99.9,30.08,North,10,0.0,0.0,255,0.00,,,0.00,Wunderground v.1.13,2013-03-09 10:01:00,
2013-03-09 05:26:00,52.5,-99.9,30.09,North,10,1.0,1.0,255,0.00,,,0.00,Wunderground v.1.13,2013-03-09 10:26:00,
2013-03-09 05:40:00,52.6,-99.9,30.10,North,10,1.0,2.0,255,0.00,,,0.00,Wunderground v.1.13,2013-03-09 10:40:00,
2013-03-09 05:45:00,52.8,-99.9,30.10,North,10,1.0,1.0,255,0.00,,,0.00,Wunderground v.1.13,2013-03-09 10:45:00,
2013-03-09 05:50:00,52.8,-99.9,30.10,North,10,0.0,0.0,255,0.00,,,0.00,Wunderground v.1.13,2013-03-09 10:50:00,
2013-03-09 05:56:00,52.9,-99.9,30.10,North,10,0.0,0.0,255,0.00,,,0.00,Wunderground v.1.13,2013-03-09 10:56:00,
2013-03-09 06:01:00,52.9,-99.9,30.10,North,10,0.0,0.0,255,0.00,,,0.00,Wunderground v.1.13,2013-03-09 11:01:00,
2013-03-09 06:16:00,52.8,-99.9,30.10,North,10,0.0,2.0,255,0.00,,,0.00,Wunderground v.1.13,2013-03-09 11:16:00,
2013-03-09 06:35:00,52.5,-99.9,30.11,North,10,0.0,0.0,255,0.00,,,0.00,Wunderground v.1.13,2013-03-09 11:35:00,
2013-03-09 06:41:00,52.5,-99.9,30.11,NNE,21,0.0,0.0,255,0.00,,,0.00,Wunderground v.1.13,2013-03-09 11:41:00,
2013-03-09 06:51:00,52.6,-99.9,30.12,NNE,21,0.0,0.0,255,0.00,,,0.00,Wunderground v.1.13,2013-03-09 11:51:00,
2013-03-09 07:06:00,53.1,-99.9,30.12,NNE,21,1.0,1.0,255,0.00,,,0.00,Wunderground v.1.13,2013-03-09 12:06:00,
2013-03-09 07:30:00,55.3,-99.9,30.13,NNW,346,2.0,2.0,255,0.00,,,0.00,Wunderground v.1.13,2013-03-09 12:30:00,
2013-03-09 07:35:00,55.7,-99.9,30.14,NW,321,2.0,2.0,255,0.00,,,0.00,Wunderground v.1.13,2013-03-09 12:35:00,
2013-03-09 07:40:00,56.9,-99.9,30.14,NW,321,2.0,2.0,255,0.00,,,0.00,Wunderground v.1.13,2013-03-09 12:40:00,
2013-03-09 07:51:00,58.0,-99.9,30.14,NW,321,2.0,2.0,255,0.00,,,0.00,Wunderground v.1.13,2013-03-09 12:51:00,
2013-03-09 08:00:00,59.0,-99.9,30.14,NW,321,2.0,3.0,255,0.00,,,0.00,Wunderground v.1.13,2013-03-09 13:00:00,
2013-03-09 08:30:00,63.1,-99.9,30.15,NNW,329,3.0,4.0,255,0.00,,,0.00,Wunderground v.1.13,2013-03-09 13:30:00,
2013-03-09 08:35:00,64.0,-99.9,30.15,NNW,327,4.0,4.0,255,0.00,,,0.00,Wunderground v.1.13,2013-03-09 13:35:00,
2013-03-09 08:45:00,65.3,-99.9,30.15,NNW,328,4.0,6.0,255,0.00,,,0.00,Wunderground v.1.13,2013-03-09 13:45:00,
2013-03-09 08:51:00,66.0,-99.9,30.15,NNW,345,4.0,5.0,255,0.00,,,0.00,Wunderground v.1.13,2013-03-09 13:51:00,
2013-03-09 09:06:00,68.1,-99.9,30.15,NNW,339,3.0,3.0,255,0.00,,,0.00,Wunderground v.1.13,2013-03-09 14:06:00,
2013-03-09 09:41:00,71.8,-99.9,30.15,NNE,27,5.0,5.0,255,0.00,,,0.00,Wunderground v.1.13,2013-03-09 14:41:00,
2013-03-09 09:56:00,72.1,-99.9,30.15,NE,34,5.0,5.0,255,0.00,,,0.00,Wunderground v.1.13,2013-03-09 14:56:00,
2013-03-09 10:01:00,73.2,-99.9,30.15,NNE,23,8.0,10.0,-32768,0.00,,,0.00,Wunderground v.1.13,2013-03-09 15:01:00,
2013-03-09 10:26:00,74.2,-99.9,30.15,NNE,13,5.0,5.0,255,0.00,,,0.00,Wunderground v.1.13,2013-03-09 15:26:00,
2013-03-09 10:41:00,74.6,-99.9,30.15,North,360,5.0,8.0,255,0.00,,,0.00,Wunderground v.1.13,2013-03-09 15:41:00,
2013-03-09 10:51:00,74.0,-99.9,30.15,NNE,30,5.0,5.0,255,0.00,,,0.00,Wunderground v.1.13,2013-03-09 15:51:00,
2013-03-09 10:56:00,74.6,-99.9,30.15,ENE,68,2.0,4.0,-32768,0.00,,,0.00,Wunderground v.1.13,2013-03-09 15:56:00,
2013-03-09 11:01:00,75.1,-99.9,30.16,NNE,23,4.0,8.0,-32768,0.00,,,0.00,Wunderground v.1.13,2013-03-09 16:01:00,
2013-03-09 11:31:00,75.4,-99.9,30.15,NE,49,5.0,6.0,255,0.00,,,0.00,Wunderground v.1.13,2013-03-09 16:31:00,
2013-03-09 11:51:00,75.6,-99.9,30.15,NNE,21,5.0,5.0,255,0.00,,,0.00,Wunderground v.1.13,2013-03-09 16:51:00,
2013-03-09 11:56:00,75.6,-99.9,30.15,NE,45,4.0,6.0,-32768,0.00,,,0.00,Wunderground v.1.13,2013-03-09 16:56:00,
2013-03-09 12:01:00,75.3,-99.9,30.15,NNE,23,7.0,9.0,-32768,0.00,,,0.00,Wunderground v.1.13,2013-03-09 17:01:00,
2013-03-09 12:21:00,76.5,-99.9,30.15,NNE,14,5.0,6.0,255,0.00,,,0.00,Wunderground v.1.13,2013-03-09 17:21:00,
2013-03-09 12:40:00,75.6,-99.9,30.14,NE,34,6.0,6.0,255,0.00,,,0.00,Wunderground v.1.13,2013-03-09 17:40:00,
2013-03-09 12:46:00,76.0,-99.9,30.14,NE,42,7.0,7.0,255,0.00,,,0.00,Wunderground v.1.13,2013-03-09 17:46:00,
2013-03-09 12:56:00,75.3,-99.9,30.14,ENE,62,6.0,6.0,255,0.00,,,0.00,Wunderground v.1.13,2013-03-09 17:56:00,
2013-03-09 13:06:00,75.3,-99.9,30.14,NE,52,5.0,8.0,255,0.00,,,0.00,Wunderground v.1.13,2013-03-09 18:06:00,
2013-03-09 13:26:00,75.3,-99.9,30.13,ENE,69,6.0,6.0,255,0.00,,,0.00,Wunderground v.1.13,2013-03-09 18:26:00,
2013-03-09 13:31:00,74.6,-99.9,30.13,North,5,6.0,6.0,255,0.00,,,0.00,Wunderground v.1.13,2013-03-09 18:31:00,
2013-03-09 13:46:00,73.5,-99.9,30.12,NNE,33,6.0,6.0,255,0.00,,,0.00,Wunderground v.1.13,2013-03-09 18:46:00,
2013-03-09 14:01:00,74.9,-99.9,30.12,ESE,103,6.0,6.0,255,0.00,,,0.00,Wunderground v.1.13,2013-03-09 19:01:00,
2013-03-09 14:21:00,75.8,-99.9,30.11,North,355,6.0,8.0,255,0.00,,,0.00,Wunderground v.1.13,2013-03-09 19:21:00,
2013-03-09 14:30:00,74.2,-99.9,30.11,NE,43,7.0,7.0,255,0.00,,,0.00,Wunderground v.1.13,2013-03-09 19:30:00,
2013-03-09 14:35:00,73.5,-99.9,30.12,NNE,20,6.0,6.0,255,0.00,,,0.00,Wunderground v.1.13,2013-03-09 19:35:00,
2013-03-09 14:41:00,73.2,-99.9,30.12,NNE,33,6.0,6.0,255,0.00,,,0.00,Wunderground v.1.13,2013-03-09 19:41:00,
2013-03-09 14:46:00,72.8,-99.9,30.12,NNE,32,6.0,6.0,255,0.00,,,0.00,Wunderground v.1.13,2013-03-09 19:46:00,
2013-03-09 14:56:00,73.7,-99.9,30.11,NE,39,6.0,6.0,255,0.00,,,0.00,Wunderground v.1.13,2013-03-09 19:56:00,
2013-03-09 15:06:00,74.4,-99.9,30.11,ENE,65,6.0,8.0,255,0.00,,,0.00,Wunderground v.1.13,2013-03-09 20:06:00,
2013-03-09 15:31:00,74.0,-99.9,30.09,NE,37,6.0,11.0,255,0.00,,,0.00,Wunderground v.1.13,2013-03-09 20:31:00,
2013-03-09 15:41:00,73.0,-99.9,30.09,NE,48,7.0,8.0,255,0.00,,,0.00,Wunderground v.1.13,2013-03-09 20:41:00,
2013-03-09 15:46:00,72.3,-99.9,30.09,North,360,7.0,7.0,255,0.00,,,0.00,Wunderground v.1.13,2013-03-09 20:46:00,
2013-03-09 15:56:00,72.5,-99.9,30.09,NNE,25,7.0,7.0,255,0.00,,,0.00,Wunderground v.1.13,2013-03-09 20:56:00,
2013-03-09 16:06:00,72.7,-99.9,30.10,NNE,27,6.0,8.0,255,0.00,,,0.00,Wunderground v.1.13,2013-03-09 21:06:00,
2013-03-09 16:21:00,70.6,-99.9,30.10,NNE,17,6.0,7.0,255,0.00,,,0.00,Wunderground v.1.13,2013-03-09 21:21:00,
2013-03-09 16:36:00,70.3,-99.9,30.09,NNE,24,6.0,6.0,255,0.00,,,0.00,Wunderground v.1.13,2013-03-09 21:36:00,
2013-03-09 16:46:00,70.6,-99.9,30.09,NE,49,6.0,6.0,255,0.00,,,0.00,Wunderground v.1.13,2013-03-09 21:46:00,
2013-03-09 16:51:00,70.6,-99.9,30.10,NNE,15,6.0,6.0,255,0.00,,,0.00,Wunderground v.1.13,2013-03-09 21:51:00,
2013-03-09 17:06:00,69.8,-99.9,30.10,NNE,32,7.0,7.0,255,0.00,,,0.00,Wunderground v.1.13,2013-03-09 22:06:00,
2013-03-09 17:26:00,69.4,-99.9,30.11,NNE,24,5.0,5.0,255,0.00,,,0.00,Wunderground v.1.13,2013-03-09 22:26:00,
2013-03-09 17:31:00,69.3,-99.9,30.11,NE,37,5.0,5.0,255,0.00,,,0.00,Wunderground v.1.13,2013-03-09 22:31:00,
2013-03-09 17:41:00,68.9,-99.9,30.11,NNE,22,6.0,6.0,255,0.00,,,0.00,Wunderground v.1.13,2013-03-09 22:41:00,
2013-03-09 17:51:00,68.8,-99.9,30.12,NNE,17,4.0,4.0,255,0.00,,,0.00,Wunderground v.1.13,2013-03-09 22:51:00,
2013-03-09 18:06:00,68.8,-99.9,30.12,NNE,20,4.0,8.0,255,0.00,,,0.00,Wunderground v.1.13,2013-03-09 23:06:00,
2013-03-09 18:26:00,68.4,-99.9,30.12,NE,45,6.0,6.0,255,0.00,,,0.00,Wunderground v.1.13,2013-03-09 23:26:00,
2013-03-09 18:35:00,68.3,-99.9,30.12,NE,40,6.0,6.0,255,0.00,,,0.00,Wunderground v.1.13,2013-03-09 23:35:00,
2013-03-09 18:51:00,67.9,-99.9,30.12,NE,35,5.0,5.0,255,0.00,,,0.00,Wunderground v.1.13,2013-03-09 23:51:00,
2013-03-09 19:01:00,67.9,-99.9,30.12,NE,44,5.0,9.0,255,0.00,,,0.00,Wunderground v.1.13,2013-03-10 00:01:00,
2013-03-09 19:06:00,67.9,-99.9,30.12,NNE,31,6.0,8.0,255,0.00,,,0.00,Wunderground v.1.13,2013-03-10 00:06:00,
2013-03-09 19:21:00,67.8,-99.9,30.12,NE,38,6.0,6.0,255,0.00,,,0.00,Wunderground v.1.13,2013-03-10 00:21:00,
2013-03-09 19:41:00,67.6,-99.9,30.12,NE,52,6.0,6.0,255,0.00,,,0.00,Wunderground v.1.13,2013-03-10 00:41:00,
2013-03-09 20:05:00,67.6,-99.9,30.13,NE,40,5.0,10.0,255,0.00,,,0.00,Wunderground v.1.13,2013-03-10 01:05:00,
2013-03-09 20:31:00,67.9,-99.9,30.14,NE,45,6.0,7.0,255,0.00,,,0.00,Wunderground v.1.13,2013-03-10 01:31:00,
2013-03-09 20:46:00,67.9,-99.9,30.15,ENE,64,6.0,6.0,255,0.00,,,0.00,Wunderground v.1.13,2013-03-10 01:46:00,
2013-03-09 20:56:00,67.9,-99.9,30.15,NE,38,5.0,5.0,255,0.00,,,0.00,Wunderground v.1.13,2013-03-10 01:56:00,
2013-03-09 21:01:00,67.9,-99.9,30.15,ENE,57,5.0,5.0,255,0.00,,,0.00,Wunderground v.1.13,2013-03-10 02:01:00,
2013-03-09 21:21:00,67.9,-99.9,30.16,NE,55,6.0,6.0,255,0.00,,,0.00,Wunderground v.1.13,2013-03-10 02:21:00,
2013-03-09 21:30:00,67.8,-99.9,30.16,NE,44,5.0,5.0,255,0.00,,,0.00,Wunderground v.1.13,2013-03-10 02:30:00,
2013-03-09 21:36:00,67.8,-99.9,30.16,NE,39,5.0,5.0,255,0.00,,,0.00,Wunderground v.1.13,2013-03-10 02:36:00,
2013-03-09 21:51:00,67.6,-99.9,30.16,NE,55,4.0,4.0,255,0.00,,,0.00,Wunderground v.1.13,2013-03-10 02:51:00,
2013-03-09 21:56:00,67.4,-99.9,30.16,NE,45,6.0,10.0,-32768,0.00,,,0.00,Wunderground v.1.13,2013-03-10 02:56:00,
2013-03-09 22:01:00,67.4,-99.9,30.16,NE,45,6.0,9.0,-32768,0.00,,,0.00,Wunderground v.1.13,2013-03-10 03:01:00,
2013-03-09 22:41:00,67.8,-99.9,30.15,NE,39,4.0,4.0,255,0.00,,,0.00,Wunderground v.1.13,2013-03-10 03:41:00,
2013-03-09 22:50:00,67.8,-99.9,30.14,ENE,71,4.0,4.0,255,0.00,,,0.00,Wunderground v.1.13,2013-03-10 03:50:00,
2013-03-09 22:56:00,67.9,-99.9,30.14,ENE,63,5.0,9.0,255,0.00,,,0.00,Wunderground v.1.13,2013-03-10 03:56:00,
2013-03-09 23:01:00,67.9,-99.9,30.14,ENE,68,3.0,5.0,-32768,0.00,,,0.00,Wunderground v.1.13,2013-03-10 04:01:00,
2013-03-09 23:41:00,67.6,-99.9,30.14,NE,55,4.0,4.0,255,0.00,,,0.00,Wunderground v.1.13,2013-03-10 04:41:00,
2013-03-09 23:51:00,67.6,-99.9,30.14,ENE,74,4.0,8.0,255,0.00,,,0.00,Wunderground v.1.13,2013-03-10 04:51:00,